星链-30337 (STARLINK-30337 )

导读 | 星芒AI

STARLINK-30337 是 SpaceX Starlink 卫星互联网项目中的一颗低轨卫星,属于第三代星链卫星(v1.5 或 v2 架构)。该卫星于2023年发射,部署在约550公里高度的近地轨道,旨在为全球提供高速、低延迟的宽带互联网服务。作为Starlink星座的一部分,它支持全球范围内的通信覆盖,尤其服务于偏远和网络基础设施薄弱的地区。该卫星采用先进推进系统和激光通信技术,以提升网络效率和卫星间通信能力。

基本信息
目录编号:
57706
目录名称:
STARLINK-30337
国际标识:
2023-129J
轨道中心:
EARTH
卫星名称:
星链-30337
卫星全名:
星链-30337 (STARLINK-30337 )
卫星状态:
已陨落 最后检测时间 2024-01-27
发射日期:
2023-08-27 UTC
国别 :
美国 (US)
星等 :
--
轨道信息
数据来源 国际轨道数据
星历时间: 2024-01-27T15:52:17+0800
轨道信息已过期644天
半长轴: 6547.792km
偏心率: 0.0006951
轨道倾角: 42.986°
近地点辐角 206.999°
升交点赤经 318.984°
平近点角 207.940°
近地点: 165.105km
远地点: 174.209km
周期: 87.882分钟
每日圈数: 16.385529
详细信息
固有亮度:
5
最大亮度:
0.3
卫星平台:
Starlink v2.0 mini
覆盖范围:
全球
运营商:
太空探索技术公司
运营商所在国:
美国
制造商(研发单位):
太空探索技术公司
制造商所在国:
美国
使用方式:
暂无
卫星简介
星链(Starlink)计划是由太空探索技术公司(SpaceX)提出的一个巨型低轨卫星互联网星座项目,计划在2019年至2024年间在太空搭建由约1.2万颗卫星组成的“星链”网络,其中1584颗将部署在地球上空550千米处的近地轨道,并从2020年开始工作。该卫星已陨落。